Tracking 18957 objects as of 22-Jan-2018
HD Live streaming from Space Station
objects crossing your sky now

GALILEO 20 (2C6)

Track GALILEO 20 (2C6) now!
GALILEO 20 (2C6) is classified as:


NORAD ID: 43056
Int'l Code: 2017-079B
Perigee: 23,178.4 km
Apogee: 23,189.2 km
Inclination: 56.9 °
Period: 842.8 minutes
Semi major axis: 29554 km
RCS: Unknown
Launch date: December 12, 2017
Source: European Space Agency (ESA)
Launch site: FRENCH GUIANA (FRGUI)
aabbcc
Your satellite tracking list
Your tracking list is empty




NASA's NSSDC Master Catalog

Two Line Element Set (TLE):
1 43056U 17079B   18017.80318606 -.00000040  00000-0  00000+0 0  9995
2 43056  56.9000 305.8720 0001842  21.9766 337.9826  1.70868034   602
Source of the keplerian elements: AFSPC